Time,TemperatureF,DewpointF,PressureIn,WindDirection,WindDirectionDegrees,WindSpeedMPH,WindSpeedGustMPH,Humidity,HourlyPrecipIn,Conditions,Clouds,dailyrainin,SoftwareType,DateUTC
2013-02-06 00:00:00,43.7,41.8,30.02,West,260,8.0,12.0,93,0.00,,---,0.00,VWS V14.01,2013-02-06 08:00:00,
2013-02-06 00:05:00,43.7,41.8,30.02,West,269,14.0,18.0,93,0.00,,---,0.00,VWS V14.01,2013-02-06 08:05:00,
2013-02-06 00:10:00,43.8,41.6,30.02,SW,232,10.0,18.0,92,0.00,,---,0.00,VWS V14.01,2013-02-06 08:10:00,
2013-02-06 00:15:00,43.9,41.7,30.02,WSW,238,6.0,18.0,92,0.00,,---,0.00,VWS V14.01,2013-02-06 08:15:00,
2013-02-06 00:20:00,44.0,41.8,30.02,WSW,247,11.0,18.0,92,0.00,,---,0.00,VWS V14.01,2013-02-06 08:20:00,
2013-02-06 00:25:00,44.0,41.5,30.02,SW,236,8.0,18.0,91,0.00,,---,0.00,VWS V14.01,2013-02-06 08:25:00,
2013-02-06 00:30:00,44.0,41.5,30.02,West,271,3.0,11.0,91,0.00,,---,0.00,VWS V14.01,2013-02-06 08:30:00,
2013-02-06 00:35:00,43.9,41.5,30.02,West,270,8.0,12.0,91,0.00,,---,0.00,VWS V14.01,2013-02-06 08:35:00,
2013-02-06 00:40:00,43.9,41.2,30.02,WNW,285,7.0,14.0,90,0.00,,---,0.00,VWS V14.01,2013-02-06 08:40:00,
2013-02-06 00:45:00,43.8,41.1,30.02,NNW,332,6.0,15.0,90,0.00,,---,0.00,VWS V14.01,2013-02-06 08:45:00,
2013-02-06 00:49:00,43.9,40.9,30.02,WSW,242,9.0,15.0,89,0.00,,---,0.00,VWS V14.01,2013-02-06 08:49:00,
2013-02-06 00:54:00,43.8,41.1,30.02,WSW,238,13.0,15.0,90,0.00,,---,0.00,VWS V14.01,2013-02-06 08:54:00,
2013-02-06 00:59:00,43.8,40.8,30.02,SW,232,15.0,15.0,89,0.00,,---,0.00,VWS V14.01,2013-02-06 08:59:00,
2013-02-06 01:00:00,43.8,40.8,30.02,West,262,8.0,15.0,89,0.00,,---,0.00,VWS V14.01,2013-02-06 09:00:00,
2013-02-06 01:04:00,43.8,40.8,30.02,SW,231,14.0,16.0,89,0.00,,---,0.00,VWS V14.01,2013-02-06 09:04:00,
2013-02-06 01:09:00,43.7,40.7,30.02,West,281,9.0,17.0,89,0.00,,---,0.00,VWS V14.01,2013-02-06 09:09:00,
2013-02-06 01:14:00,43.5,40.2,30.02,WSW,256,6.0,17.0,88,0.00,,---,0.00,VWS V14.01,2013-02-06 09:14:00,
2013-02-06 01:19:00,43.1,40.1,30.02,WSW,249,9.0,17.0,89,0.00,,---,0.00,VWS V14.01,2013-02-06 09:19:00,
2013-02-06 01:24:00,42.8,39.8,30.02,West,273,8.0,17.0,89,0.00,,---,0.00,VWS V14.01,2013-02-06 09:24:00,
2013-02-06 01:29:00,42.6,39.6,30.02,West,270,6.0,12.0,89,0.00,,---,0.00,VWS V14.01,2013-02-06 09:29:00,
2013-02-06 01:30:00,42.7,39.7,30.02,WNW,297,7.0,17.0,89,0.00,,---,0.00,VWS V14.01,2013-02-06 09:30:00,
2013-02-06 01:34:00,42.5,39.5,30.02,SW,231,7.0,19.0,89,0.00,,---,0.00,VWS V14.01,2013-02-06 09:34:00,
2013-02-06 01:39:00,42.4,39.4,30.02,WNW,295,12.0,19.0,89,0.00,,---,0.00,VWS V14.01,2013-02-06 09:39:00,
2013-02-06 01:44:00,42.2,39.2,30.02,SSW,207,9.0,19.0,89,0.00,,---,0.00,VWS V14.01,2013-02-06 09:44:00,
2013-02-06 01:49:00,42.0,39.0,30.02,West,261,8.0,19.0,89,0.00,,---,0.00,VWS V14.01,2013-02-06 09:49:00,
2013-02-06 01:54:00,41.9,38.9,30.02,West,259,9.0,23.0,89,0.00,,---,0.00,VWS V14.01,2013-02-06 09:54:00,
2013-02-06 01:59:00,41.8,38.8,30.02,West,269,11.0,18.0,89,0.00,,---,0.00,VWS V14.01,2013-02-06 09:59:00,
2013-02-06 02:00:00,41.8,38.8,30.02,WNW,285,13.0,23.0,89,0.00,,---,0.00,VWS V14.01,2013-02-06 10:00:00,
2013-02-06 02:04:00,41.9,38.9,30.02,SW,228,6.0,18.0,89,0.00,,---,0.00,VWS V14.01,2013-02-06 10:04:00,
2013-02-06 02:09:00,41.9,38.9,30.02,WSW,240,11.0,18.0,89,0.00,,---,0.00,VWS V14.01,2013-02-06 10:09:00,
2013-02-06 02:14:00,41.9,38.9,30.02,SW,218,12.0,18.0,89,0.00,,---,0.00,VWS V14.01,2013-02-06 10:14:00,
2013-02-06 02:19:00,41.8,38.8,30.02,WNW,293,6.0,20.0,89,0.00,,---,0.00,VWS V14.01,2013-02-06 10:19:00,
2013-02-06 02:24:00,41.7,38.7,30.02,West,278,7.0,20.0,89,0.00,,---,0.00,VWS V14.01,2013-02-06 10:24:00,
2013-02-06 02:29:00,41.6,38.6,30.02,SW,232,9.0,9.0,89,0.00,,---,0.00,VWS V14.01,2013-02-06 10:29:00,
2013-02-06 02:30:00,41.6,38.6,30.02,West,271,7.0,20.0,89,0.00,,---,0.00,VWS V14.01,2013-02-06 10:30:00,
2013-02-06 02:34:00,41.5,38.5,30.02,WNW,294,4.0,12.0,89,0.00,,---,0.00,VWS V14.01,2013-02-06 10:34:00,
2013-02-06 02:39:00,41.4,38.4,30.02,East,82,1.0,12.0,89,0.00,,---,0.00,VWS V14.01,2013-02-06 10:39:00,
2013-02-06 02:44:00,41.3,38.3,30.02,WSW,243,5.0,12.0,89,0.00,,---,0.00,VWS V14.01,2013-02-06 10:44:00,
2013-02-06 02:49:00,41.3,38.3,30.02,WSW,249,4.0,14.0,89,0.00,,---,0.00,VWS V14.01,2013-02-06 10:49:00,
2013-02-06 02:54:00,41.3,38.3,30.02,SW,219,4.0,14.0,89,0.00,,---,0.00,VWS V14.01,2013-02-06 10:54:00,
2013-02-06 02:59:00,41.2,37.9,30.02,West,262,5.0,13.0,88,0.00,,---,0.00,VWS V14.01,2013-02-06 10:59:00,
2013-02-06 03:00:00,41.2,38.2,30.02,WNW,291,13.0,14.0,89,0.00,,---,0.00,VWS V14.01,2013-02-06 11:00:00,
2013-02-06 03:04:00,41.3,38.0,30.02,West,260,5.0,13.0,88,0.00,,---,0.00,VWS V14.01,2013-02-06 11:04:00,
2013-02-06 03:09:00,41.3,38.0,30.01,WSW,243,7.0,13.0,88,0.00,,---,0.00,VWS V14.01,2013-02-06 11:09:00,
2013-02-06 03:14:00,41.4,38.1,30.01,SW,231,2.0,16.0,88,0.00,,---,0.00,VWS V14.01,2013-02-06 11:14:00,
2013-02-06 03:19:00,41.4,38.1,30.00,WSW,255,11.0,16.0,88,0.00,,---,0.00,VWS V14.01,2013-02-06 11:19:00,
2013-02-06 03:24:00,41.5,38.5,30.00,West,266,11.0,16.0,89,0.00,,---,0.00,VWS V14.01,2013-02-06 11:24:00,
2013-02-06 03:29:00,41.3,38.3,30.00,West,271,10.0,16.0,89,0.00,,---,0.00,VWS V14.01,2013-02-06 11:29:00,
2013-02-06 03:30:00,41.3,38.3,30.00,West,266,8.0,16.0,89,0.00,,---,0.00,VWS V14.01,2013-02-06 11:30:00,
2013-02-06 03:34:00,41.3,38.3,30.00,WSW,252,7.0,16.0,89,0.00,,---,0.00,VWS V14.01,2013-02-06 11:34:00,
2013-02-06 03:39:00,41.2,38.2,30.00,WSW,239,7.0,16.0,89,0.00,,---,0.00,VWS V14.01,2013-02-06 11:39:00,
2013-02-06 03:44:00,41.0,38.0,30.00,West,269,15.0,16.0,89,0.00,,---,0.00,VWS V14.01,2013-02-06 11:44:00,
2013-02-06 03:49:00,40.9,37.9,30.00,West,267,12.0,17.0,89,0.00,,---,0.00,VWS V14.01,2013-02-06 11:49:00,
2013-02-06 03:54:00,40.9,37.6,30.00,WNW,285,14.0,18.0,88,0.00,,---,0.00,VWS V14.01,2013-02-06 11:54:00,
2013-02-06 03:59:00,40.9,37.6,29.99,West,267,18.0,18.0,88,0.00,,---,0.00,VWS V14.01,2013-02-06 11:59:00,
2013-02-06 04:00:00,40.8,37.5,29.99,West,262,10.0,18.0,88,0.00,,---,0.00,VWS V14.01,2013-02-06 12:00:00,
2013-02-06 04:04:00,41.0,37.4,29.99,West,281,15.0,24.0,87,0.00,,---,0.00,VWS V14.01,2013-02-06 12:04:00,
2013-02-06 04:09:00,41.1,37.5,29.99,WNW,294,16.0,27.0,87,0.00,,---,0.00,VWS V14.01,2013-02-06 12:09:00,
2013-02-06 04:14:00,41.2,37.3,29.99,West,267,16.0,27.0,86,0.00,,---,0.00,VWS V14.01,2013-02-06 12:14:00,
2013-02-06 04:19:00,41.3,37.1,29.99,NW,319,12.0,27.0,85,0.00,,---,0.00,VWS V14.01,2013-02-06 12:19:00,
2013-02-06 04:24:00,41.4,37.2,29.99,NW,304,14.0,27.0,85,0.00,,---,0.00,VWS V14.01,2013-02-06 12:24:00,
2013-02-06 04:29:00,41.4,37.2,29.99,NW,323,13.0,22.0,85,0.00,,---,0.00,VWS V14.01,2013-02-06 12:29:00,
2013-02-06 04:30:00,41.4,37.2,29.99,NW,313,16.0,27.0,85,0.00,,---,0.00,VWS V14.01,2013-02-06 12:30:00,
2013-02-06 04:34:00,41.3,37.1,30.00,West,274,16.0,22.0,85,0.00,,---,0.00,VWS V14.01,2013-02-06 12:34:00,
2013-02-06 04:39:00,41.3,37.4,30.01,WNW,285,14.0,24.0,86,0.00,,---,0.00,VWS V14.01,2013-02-06 12:39:00,
2013-02-06 04:44:00,41.2,37.0,30.02,NW,307,8.0,24.0,85,0.00,,---,0.00,VWS V14.01,2013-02-06 12:44:00,
2013-02-06 04:49:00,41.3,37.1,30.02,West,281,9.0,24.0,85,0.00,,---,0.00,VWS V14.01,2013-02-06 12:49:00,
2013-02-06 04:54:00,41.3,36.8,30.03,NW,319,3.0,24.0,84,0.00,,---,0.00,VWS V14.01,2013-02-06 12:54:00,
2013-02-06 04:59:00,41.4,36.6,30.03,SW,235,4.0,14.0,83,0.00,,---,0.00,VWS V14.01,2013-02-06 12:59:00,
2013-02-06 05:00:00,41.4,36.9,30.03,WNW,302,12.0,24.0,84,0.00,,---,0.00,VWS V14.01,2013-02-06 13:00:00,
2013-02-06 05:04:00,41.4,36.6,30.03,WNW,301,10.0,14.0,83,0.00,,---,0.00,VWS V14.01,2013-02-06 13:04:00,
2013-02-06 05:09:00,41.4,36.6,30.03,WNW,302,10.0,14.0,83,0.00,,---,0.00,VWS V14.01,2013-02-06 13:09:00,
2013-02-06 05:14:00,41.3,36.5,30.03,SSW,203,7.0,14.0,83,0.00,,---,0.00,VWS V14.01,2013-02-06 13:14:00,
2013-02-06 05:19:00,41.1,36.0,30.03,SSW,212,9.0,15.0,82,0.00,,---,0.00,VWS V14.01,2013-02-06 13:19:00,
2013-02-06 05:24:00,40.9,36.1,30.02,SSW,207,8.0,15.0,83,0.00,,---,0.00,VWS V14.01,2013-02-06 13:24:00,
2013-02-06 05:29:00,40.7,36.0,30.02,West,260,5.0,12.0,83,0.00,,---,0.00,VWS V14.01,2013-02-06 13:29:00,
2013-02-06 05:30:00,40.7,36.0,30.02,SW,236,6.0,15.0,83,0.00,,---,0.00,VWS V14.01,2013-02-06 13:30:00,
2013-02-06 05:34:00,40.7,36.0,30.02,SW,231,15.0,16.0,83,0.00,,---,0.00,VWS V14.01,2013-02-06 13:34:00,
2013-02-06 05:39:00,40.7,36.0,30.01,SW,226,8.0,16.0,83,0.00,,---,0.00,VWS V14.01,2013-02-06 13:39:00,
2013-02-06 05:44:00,40.6,35.8,30.01,WSW,252,12.0,16.0,83,0.00,,---,0.00,VWS V14.01,2013-02-06 13:44:00,
2013-02-06 05:49:00,40.6,35.8,30.00,WNW,283,7.0,17.0,83,0.00,,---,0.00,VWS V14.01,2013-02-06 13:49:00,
2013-02-06 05:54:00,40.7,36.0,29.99,WSW,249,9.0,17.0,83,0.00,,---,0.00,VWS V14.01,2013-02-06 13:54:00,
2013-02-06 05:59:00,40.7,36.0,29.99,West,263,8.0,18.0,83,0.00,,---,0.00,VWS V14.01,2013-02-06 13:59:00,
2013-02-06 06:00:00,40.7,36.0,30.00,West,264,16.0,17.0,83,0.00,,---,0.00,VWS V14.01,2013-02-06 14:00:00,
2013-02-06 06:04:00,40.8,35.7,29.99,West,280,6.0,21.0,82,0.00,,---,0.00,VWS V14.01,2013-02-06 14:04:00,
2013-02-06 06:09:00,40.7,35.6,29.99,WNW,293,15.0,21.0,82,0.00,,---,0.00,VWS V14.01,2013-02-06 14:09:00,
2013-02-06 06:14:00,40.7,35.3,29.99,WNW,288,12.0,21.0,81,0.00,,---,0.00,VWS V14.01,2013-02-06 14:14:00,
2013-02-06 06:19:00,40.7,35.3,29.99,WNW,294,7.0,21.0,81,0.00,,---,0.00,VWS V14.01,2013-02-06 14:19:00,
2013-02-06 06:24:00,40.9,35.2,29.99,WNW,302,7.0,21.0,80,0.00,,---,0.00,VWS V14.01,2013-02-06 14:24:00,
2013-02-06 06:29:00,40.9,35.2,29.99,NW,304,8.0,14.0,80,0.00,,---,0.00,VWS V14.01,2013-02-06 14:29:00,
2013-02-06 06:30:00,40.9,35.2,30.00,West,280,6.0,22.0,80,0.00,,---,0.00,VWS V14.01,2013-02-06 14:30:00,
2013-02-06 06:34:00,40.9,35.2,30.01,WSW,257,15.0,17.0,80,0.00,,---,0.00,VWS V14.01,2013-02-06 14:34:00,
2013-02-06 06:39:00,40.9,35.2,30.01,West,263,7.0,17.0,80,0.00,,---,0.00,VWS V14.01,2013-02-06 14:39:00,
2013-02-06 06:44:00,40.9,35.2,30.02,West,263,6.0,17.0,80,0.00,,---,0.00,VWS V14.01,2013-02-06 14:44:00,
2013-02-06 06:49:00,40.9,35.2,30.03,SSW,198,8.0,17.0,80,0.00,,---,0.00,VWS V14.01,2013-02-06 14:49:00,
2013-02-06 06:54:00,40.7,35.0,30.03,SSW,200,9.0,17.0,80,0.00,,---,0.00,VWS V14.01,2013-02-06 14:54:00,
2013-02-06 06:59:00,40.7,35.3,30.04,WNW,283,4.0,7.0,81,0.00,,---,0.00,VWS V14.01,2013-02-06 14:59:00,
2013-02-06 07:00:00,40.7,35.3,30.03,WSW,248,3.0,17.0,81,0.00,,---,0.00,VWS V14.01,2013-02-06 15:00:00,
2013-02-06 07:04:00,40.9,35.5,30.04,West,276,8.0,14.0,81,0.00,,---,0.00,VWS V14.01,2013-02-06 15:04:00,
2013-02-06 07:09:00,41.2,35.5,30.04,SW,228,6.0,14.0,80,0.00,,---,0.00,VWS V14.01,2013-02-06 15:09:00,
2013-02-06 07:14:00,41.5,35.5,30.04,WSW,243,12.0,14.0,79,0.00,,---,0.00,VWS V14.01,2013-02-06 15:14:00,
2013-02-06 07:19:00,41.8,35.5,30.03,SW,218,11.0,17.0,78,0.00,,---,0.00,VWS V14.01,2013-02-06 15:19:00,
2013-02-06 07:24:00,41.9,35.5,30.04,SW,218,14.0,17.0,78,0.00,,---,0.00,VWS V14.01,2013-02-06 15:24:00,
2013-02-06 07:29:00,42.1,35.4,30.04,West,276,11.0,17.0,77,0.00,,---,0.00,VWS V14.01,2013-02-06 15:29:00,
2013-02-06 07:30:00,42.0,35.7,30.04,West,262,16.0,17.0,78,0.00,,---,0.00,VWS V14.01,2013-02-06 15:30:00,
2013-02-06 07:34:00,42.3,35.6,30.04,West,267,5.0,17.0,77,0.00,,---,0.00,VWS V14.01,2013-02-06 15:34:00,
2013-02-06 07:39:00,42.4,35.4,30.04,WSW,247,17.0,19.0,76,0.00,,---,0.00,VWS V14.01,2013-02-06 15:39:00,
2013-02-06 07:44:00,42.6,35.6,30.04,WSW,255,6.0,21.0,76,0.00,,---,0.00,VWS V14.01,2013-02-06 15:44:00,
2013-02-06 07:49:00,42.7,35.7,30.04,WNW,283,13.0,21.0,76,0.00,,---,0.00,VWS V14.01,2013-02-06 15:49:00,
2013-02-06 07:54:00,42.9,35.5,30.04,WSW,238,17.0,21.0,75,0.00,,---,0.00,VWS V14.01,2013-02-06 15:54:00,
2013-02-06 07:59:00,43.1,35.7,30.04,West,262,10.0,18.0,75,0.00,,---,0.00,VWS V14.01,2013-02-06 15:59:00,
2013-02-06 08:00:00,43.0,35.6,30.04,WSW,256,11.0,21.0,75,0.00,,---,0.00,VWS V14.01,2013-02-06 16:00:00,
2013-02-06 08:04:00,43.2,35.8,30.04,WNW,297,13.0,19.0,75,0.00,,---,0.00,VWS V14.01,2013-02-06 16:04:00,
2013-02-06 08:09:00,43.3,35.6,30.04,WNW,294,14.0,22.0,74,0.00,,---,0.00,VWS V14.01,2013-02-06 16:09:00,
2013-02-06 08:14:00,43.5,35.8,30.04,NW,312,9.0,22.0,74,0.00,,---,0.00,VWS V14.01,2013-02-06 16:14:00,
2013-02-06 08:19:00,43.6,35.5,30.04,West,264,13.0,22.0,73,0.00,,---,0.00,VWS V14.01,2013-02-06 16:19:00,
2013-02-06 08:24:00,43.7,35.3,30.04,WNW,294,13.0,22.0,72,0.00,,---,0.00,VWS V14.01,2013-02-06 16:24:00,
2013-02-06 08:29:00,44.1,35.7,30.04,West,270,8.0,12.0,72,0.00,,---,0.00,VWS V14.01,2013-02-06 16:29:00,
2013-02-06 08:30:00,44.0,35.6,30.04,WNW,288,5.0,22.0,72,0.00,,---,0.00,VWS V14.01,2013-02-06 16:30:00,
2013-02-06 08:34:00,44.5,35.7,30.05,WNW,288,10.0,15.0,71,0.00,,---,0.00,VWS V14.01,2013-02-06 16:34:00,
2013-02-06 08:39:00,44.9,35.4,30.05,WNW,296,5.0,15.0,69,0.00,,---,0.00,VWS V14.01,2013-02-06 16:39:00,
2013-02-06 08:44:00,45.3,35.4,30.05,West,277,6.0,15.0,68,0.00,,---,0.00,VWS V14.01,2013-02-06 16:44:00,
2013-02-06 08:49:00,45.6,35.3,30.06,WSW,255,3.0,15.0,67,0.00,,---,0.00,VWS V14.01,2013-02-06 16:49:00,
2013-02-06 08:54:00,46.3,34.8,30.06,SW,214,7.0,15.0,64,0.00,,---,0.00,VWS V14.01,2013-02-06 16:54:00,
2013-02-06 08:59:00,47.1,34.4,30.06,West,271,3.0,11.0,61,0.00,,---,0.00,VWS V14.01,2013-02-06 16:59:00,
2013-02-06 09:00:00,47.0,34.7,30.06,West,266,7.0,16.0,62,0.00,,---,0.00,VWS V14.01,2013-02-06 17:00:00,
2013-02-06 09:04:00,47.4,34.6,30.05,West,277,7.0,12.0,61,0.00,,---,0.00,VWS V14.01,2013-02-06 17:04:00,
2013-02-06 09:09:00,48.0,34.4,30.05,West,281,9.0,14.0,59,0.00,,---,0.00,VWS V14.01,2013-02-06 17:09:00,
2013-02-06 09:14:00,48.4,34.3,30.05,WNW,283,15.0,15.0,58,0.00,,---,0.00,VWS V14.01,2013-02-06 17:14:00,
2013-02-06 09:19:00,49.1,34.1,30.05,WNW,290,5.0,15.0,56,0.00,,---,0.00,VWS V14.01,2013-02-06 17:19:00,
2013-02-06 09:24:00,49.5,33.6,30.05,West,264,6.0,15.0,54,0.00,,---,0.00,VWS V14.01,2013-02-06 17:24:00,
2013-02-06 09:29:00,49.8,33.4,30.05,WSW,242,9.0,13.0,53,0.00,,---,0.00,VWS V14.01,2013-02-06 17:29:00,
2013-02-06 09:30:00,49.7,33.3,30.05,WSW,237,9.0,15.0,53,0.00,,---,0.00,VWS V14.01,2013-02-06 17:30:00,
2013-02-06 09:34:00,50.3,33.8,30.05,WSW,245,7.0,13.0,53,0.00,,---,0.00,VWS V14.01,2013-02-06 17:34:00,
2013-02-06 09:39:00,50.8,32.8,30.06,SW,222,6.0,13.0,50,0.00,,---,0.00,VWS V14.01,2013-02-06 17:39:00,
2013-02-06 09:44:00,51.5,33.5,30.05,West,271,12.0,13.0,50,0.00,,---,0.00,VWS V14.01,2013-02-06 17:44:00,
2013-02-06 09:49:00,52.1,33.0,30.06,WSW,255,3.0,13.0,48,0.00,,---,0.00,VWS V14.01,2013-02-06 17:49:00,
2013-02-06 09:54:00,53.2,33.0,30.06,West,276,10.0,13.0,46,0.00,,---,0.00,VWS V14.01,2013-02-06 17:54:00,
2013-02-06 09:59:00,53.4,33.2,30.06,WSW,255,10.0,17.0,46,0.00,,---,0.00,VWS V14.01,2013-02-06 17:59:00,
2013-02-06 10:00:00,53.4,32.6,30.06,WNW,291,15.0,15.0,45,0.00,,---,0.00,VWS V14.01,2013-02-06 18:00:00,
2013-02-06 10:04:00,53.3,34.1,30.05,West,273,7.0,17.0,48,0.00,,---,0.00,VWS V14.01,2013-02-06 18:04:00,
2013-02-06 10:09:00,53.8,32.4,30.06,NW,316,7.0,17.0,44,0.00,,---,0.00,VWS V14.01,2013-02-06 18:09:00,
2013-02-06 10:14:00,54.0,34.2,30.06,West,264,14.0,17.0,47,0.00,,---,0.00,VWS V14.01,2013-02-06 18:14:00,
2013-02-06 10:19:00,53.4,35.2,30.06,West,266,9.0,18.0,50,0.00,,---,0.00,VWS V14.01,2013-02-06 18:19:00,
2013-02-06 10:24:00,53.2,35.1,30.06,WSW,255,12.0,18.0,50,0.00,,---,0.00,VWS V14.01,2013-02-06 18:24:00,
2013-02-06 10:29:00,52.6,35.0,30.06,WSW,238,12.0,14.0,51,0.00,,---,0.00,VWS V14.01,2013-02-06 18:29:00,
2013-02-06 10:30:00,52.7,34.1,30.06,WNW,285,12.0,18.0,49,0.00,,---,0.00,VWS V14.01,2013-02-06 18:30:00,
2013-02-06 10:34:00,52.1,36.0,30.06,WNW,302,13.0,20.0,54,0.00,,---,0.00,VWS V14.01,2013-02-06 18:34:00,
2013-02-06 10:39:00,51.9,36.7,30.06,West,279,9.0,20.0,56,0.00,,---,0.00,VWS V14.01,2013-02-06 18:39:00,
2013-02-06 10:44:00,51.6,36.9,30.05,WSW,252,14.0,20.0,57,0.00,,---,0.00,VWS V14.01,2013-02-06 18:44:00,
2013-02-06 10:49:00,51.4,36.7,30.06,West,273,8.0,20.0,57,0.00,,---,0.00,VWS V14.01,2013-02-06 18:49:00,
2013-02-06 10:54:00,52.0,36.3,30.06,West,273,10.0,20.0,55,0.00,,---,0.00,VWS V14.01,2013-02-06 18:54:00,
2013-02-06 10:59:00,53.6,36.4,30.06,NW,307,7.0,13.0,52,0.00,,---,0.00,VWS V14.01,2013-02-06 18:59:00,
2013-02-06 11:00:00,53.3,35.7,30.06,SW,224,8.0,20.0,51,0.00,,---,0.00,VWS V14.01,2013-02-06 19:00:00,
2013-02-06 11:04:00,55.2,35.3,30.06,West,260,6.0,16.0,47,0.00,,---,0.00,VWS V14.01,2013-02-06 19:04:00,
2013-02-06 11:09:00,56.5,34.9,30.06,West,276,6.0,16.0,44,0.00,,---,0.00,VWS V14.01,2013-02-06 19:09:00,
2013-02-06 11:14:00,56.3,35.2,30.06,West,281,8.0,16.0,45,0.00,,---,0.00,VWS V14.01,2013-02-06 19:14:00,
2013-02-06 11:19:00,56.8,35.1,30.06,West,273,7.0,16.0,44,0.00,,---,0.00,VWS V14.01,2013-02-06 19:19:00,
2013-02-06 11:24:00,57.5,32.8,30.06,WNW,288,5.0,16.0,39,0.00,,---,0.00,VWS V14.01,2013-02-06 19:24:00,
2013-02-06 11:29:00,58.6,33.1,30.06,West,279,4.0,10.0,38,0.00,,---,0.00,VWS V14.01,2013-02-06 19:29:00,
2013-02-06 11:30:00,58.5,33.0,30.05,West,266,9.0,16.0,38,0.00,,---,0.00,VWS V14.01,2013-02-06 19:30:00,
2013-02-06 11:34:00,59.3,31.0,30.05,WSW,242,3.0,10.0,34,0.00,,---,0.00,VWS V14.01,2013-02-06 19:34:00,
2013-02-06 11:39:00,57.9,35.6,30.05,WSW,257,17.0,17.0,43,0.00,,---,0.00,VWS V14.01,2013-02-06 19:39:00,
2013-02-06 11:44:00,54.9,35.6,30.05,SSE,155,4.0,20.0,48,0.00,,---,0.00,VWS V14.01,2013-02-06 19:44:00,
2013-02-06 11:49:00,54.8,35.5,30.05,West,274,17.0,20.0,48,0.00,,---,0.00,VWS V14.01,2013-02-06 19:49:00,
2013-02-06 11:54:00,54.1,35.4,30.05,West,274,10.0,21.0,49,0.00,,---,0.00,VWS V14.01,2013-02-06 19:54:00,
2013-02-06 11:59:00,53.9,35.2,30.05,WSW,240,9.0,16.0,49,0.00,,---,0.00,VWS V14.01,2013-02-06 19:59:00,
2013-02-06 12:00:00,54.0,35.3,30.05,WSW,240,11.0,21.0,49,0.00,,---,0.00,VWS V14.01,2013-02-06 20:00:00,
2013-02-06 12:04:00,53.8,35.1,30.05,WSW,257,12.0,19.0,49,0.00,,---,0.00,VWS V14.01,2013-02-06 20:04:00,
2013-02-06 12:09:00,54.0,35.3,30.05,WSW,242,8.0,19.0,49,0.00,,---,0.00,VWS V14.01,2013-02-06 20:09:00,
2013-02-06 12:14:00,54.5,34.2,30.05,West,263,6.0,19.0,46,0.00,,---,0.00,VWS V14.01,2013-02-06 20:14:00,
2013-02-06 12:19:00,54.8,33.9,30.05,SW,236,11.0,19.0,45,0.00,,---,0.00,VWS V14.01,2013-02-06 20:19:00,
2013-02-06 12:24:00,54.7,33.2,30.05,SW,235,9.0,21.0,44,0.00,,---,0.00,VWS V14.01,2013-02-06 20:24:00,
2013-02-06 12:29:00,54.8,33.3,30.05,WNW,283,3.0,13.0,44,0.00,,---,0.00,VWS V14.01,2013-02-06 20:29:00,
2013-02-06 12:30:00,54.7,33.2,30.05,West,264,13.0,21.0,44,0.00,,---,0.00,VWS V14.01,2013-02-06 20:30:00,
2013-02-06 12:34:00,55.6,34.0,30.04,SW,235,15.0,21.0,44,0.00,,---,0.00,VWS V14.01,2013-02-06 20:34:00,
2013-02-06 12:39:00,55.7,33.6,30.04,West,276,8.0,21.0,43,0.00,,---,0.00,VWS V14.01,2013-02-06 20:39:00,
2013-02-06 12:44:00,55.8,34.2,30.04,SW,224,7.0,21.0,44,0.00,,---,0.00,VWS V14.01,2013-02-06 20:44:00,
2013-02-06 12:49:00,55.6,35.2,30.04,WSW,252,12.0,21.0,46,0.00,,---,0.00,VWS V14.01,2013-02-06 20:49:00,
2013-02-06 12:54:00,55.5,35.1,30.03,West,270,10.0,21.0,46,0.00,,---,0.00,VWS V14.01,2013-02-06 20:54:00,
2013-02-06 12:59:00,56.0,35.5,30.03,West,267,14.0,15.0,46,0.00,,---,0.00,VWS V14.01,2013-02-06 20:59:00,
2013-02-06 13:00:00,55.9,35.4,30.03,WNW,285,9.0,21.0,46,0.00,,---,0.00,VWS V14.01,2013-02-06 21:00:00,
2013-02-06 13:04:00,56.3,35.2,30.03,WSW,249,13.0,18.0,45,0.00,,---,0.00,VWS V14.01,2013-02-06 21:04:00,
2013-02-06 13:09:00,57.0,35.3,30.02,West,274,14.0,18.0,44,0.00,,---,0.00,VWS V14.01,2013-02-06 21:09:00,
2013-02-06 13:14:00,57.7,34.8,30.03,West,266,15.0,18.0,42,0.00,,---,0.00,VWS V14.01,2013-02-06 21:14:00,
2013-02-06 13:19:00,57.5,34.6,30.02,West,279,8.0,18.0,42,0.00,,---,0.00,VWS V14.01,2013-02-06 21:19:00,
2013-02-06 13:24:00,57.4,35.1,30.02,WNW,283,14.0,18.0,43,0.00,,---,0.00,VWS V14.01,2013-02-06 21:24:00,
2013-02-06 13:29:00,57.1,34.8,30.03,WSW,246,14.0,19.0,43,0.00,,---,0.00,VWS V14.01,2013-02-06 21:29:00,
2013-02-06 13:30:00,57.2,34.9,30.02,West,271,7.0,21.0,43,0.00,,---,0.00,VWS V14.01,2013-02-06 21:30:00,
2013-02-06 13:34:00,56.7,35.0,30.02,West,278,10.0,19.0,44,0.00,,---,0.00,VWS V14.01,2013-02-06 21:34:00,
2013-02-06 13:39:00,56.4,34.8,30.02,West,259,12.0,19.0,44,0.00,,---,0.00,VWS V14.01,2013-02-06 21:39:00,
2013-02-06 13:44:00,56.2,35.2,30.02,WSW,246,11.0,19.0,45,0.00,,---,0.00,VWS V14.01,2013-02-06 21:44:00,
2013-02-06 13:49:00,56.0,35.0,30.02,West,274,8.0,19.0,45,0.00,,---,0.00,VWS V14.01,2013-02-06 21:49:00,
2013-02-06 13:54:00,56.0,34.4,30.02,West,259,11.0,19.0,44,0.00,,---,0.00,VWS V14.01,2013-02-06 21:54:00,
2013-02-06 13:59:00,56.0,33.8,30.03,West,269,12.0,14.0,43,0.00,,---,0.00,VWS V14.01,2013-02-06 21:59:00,
2013-02-06 14:00:00,56.0,33.8,30.02,WNW,288,11.0,23.0,43,0.00,,---,0.00,VWS V14.01,2013-02-06 22:00:00,
2013-02-06 14:04:00,55.9,34.3,30.03,West,276,12.0,20.0,44,0.00,,---,0.00,VWS V14.01,2013-02-06 22:04:00,
2013-02-06 14:09:00,55.8,34.2,30.02,West,269,14.0,20.0,44,0.00,,---,0.00,VWS V14.01,2013-02-06 22:09:00,
2013-02-06 14:14:00,55.5,33.4,30.03,West,276,11.0,20.0,43,0.00,,---,0.00,VWS V14.01,2013-02-06 22:14:00,
2013-02-06 14:18:00,55.7,33.6,30.02,West,271,7.0,20.0,43,0.00,,---,0.00,VWS V14.01,2013-02-06 22:18:00,
2013-02-06 14:23:00,55.7,33.6,30.03,West,274,16.0,20.0,43,0.00,,---,0.00,VWS V14.01,2013-02-06 22:23:00,
2013-02-06 14:28:00,55.4,33.3,30.03,West,281,10.0,14.0,43,0.00,,---,0.00,VWS V14.01,2013-02-06 22:28:00,
2013-02-06 14:30:00,55.5,33.4,30.03,WNW,285,10.0,20.0,43,0.00,,---,0.00,VWS V14.01,2013-02-06 22:30:00,
2013-02-06 14:33:00,55.6,32.9,30.03,West,274,12.0,18.0,42,0.00,,---,0.00,VWS V14.01,2013-02-06 22:33:00,
2013-02-06 14:38:00,55.5,32.8,30.03,West,259,12.0,19.0,42,0.00,,---,0.00,VWS V14.01,2013-02-06 22:38:00,
2013-02-06 14:43:00,55.8,33.7,30.03,West,278,12.0,21.0,43,0.00,,---,0.00,VWS V14.01,2013-02-06 22:43:00,
2013-02-06 14:48:00,55.8,33.1,30.03,SW,233,7.0,21.0,42,0.00,,---,0.00,VWS V14.01,2013-02-06 22:48:00,
2013-02-06 14:53:00,55.7,33.0,30.03,WNW,288,16.0,21.0,42,0.00,,---,0.00,VWS V14.01,2013-02-06 22:53:00,
2013-02-06 14:58:00,55.5,32.8,30.03,WSW,255,8.0,12.0,42,0.00,,---,0.00,VWS V14.01,2013-02-06 22:58:00,
2013-02-06 15:00:00,55.5,32.8,30.03,WNW,295,6.0,21.0,42,0.00,,---,0.00,VWS V14.01,2013-02-06 23:00:00,
2013-02-06 15:03:00,55.4,33.3,30.03,West,279,10.0,15.0,43,0.00,,---,0.00,VWS V14.01,2013-02-06 23:03:00,
2013-02-06 15:08:00,54.8,32.2,30.03,WSW,240,8.0,17.0,42,0.00,,---,0.00,VWS V14.01,2013-02-06 23:08:00,
2013-02-06 15:13:00,54.4,32.4,30.03,WNW,290,12.0,18.0,43,0.00,,---,0.00,VWS V14.01,2013-02-06 23:13:00,
2013-02-06 15:18:00,54.4,31.2,30.04,West,267,9.0,18.0,41,0.00,,---,0.00,VWS V14.01,2013-02-06 23:18:00,
2013-02-06 15:23:00,54.6,30.2,30.03,West,264,15.0,18.0,39,0.00,,---,0.00,VWS V14.01,2013-02-06 23:23:00,
2013-02-06 15:28:00,54.6,30.2,30.03,WNW,283,10.0,14.0,39,0.00,,---,0.00,VWS V14.01,2013-02-06 23:28:00,
2013-02-06 15:30:00,54.6,29.5,30.03,NW,316,11.0,18.0,38,0.00,,---,0.00,VWS V14.01,2013-02-06 23:30:00,
2013-02-06 15:33:00,54.7,28.3,30.03,West,269,14.0,17.0,36,0.00,,---,0.00,VWS V14.01,2013-02-06 23:33:00,
2013-02-06 15:38:00,54.7,29.0,30.03,WNW,288,9.0,20.0,37,0.00,,---,0.00,VWS V14.01,2013-02-06 23:38:00,
2013-02-06 15:43:00,54.8,28.4,30.03,WSW,238,6.0,20.0,36,0.00,,---,0.00,VWS V14.01,2013-02-06 23:43:00,
2013-02-06 15:48:00,54.8,29.0,30.03,WNW,302,7.0,20.0,37,0.00,,---,0.00,VWS V14.01,2013-02-06 23:48:00,
2013-02-06 15:53:00,54.8,28.4,30.04,WNW,285,10.0,20.0,36,0.00,,---,0.00,VWS V14.01,2013-02-06 23:53:00,
2013-02-06 15:58:00,54.8,29.7,30.03,West,278,9.0,13.0,38,0.00,,---,0.00,VWS V14.01,2013-02-06 23:58:00,
2013-02-06 16:00:00,54.8,29.7,30.04,West,281,14.0,20.0,38,0.00,,---,0.00,VWS V14.01,2013-02-07 00:00:00,
2013-02-06 16:03:00,54.5,30.7,30.03,West,264,6.0,15.0,40,0.00,,---,0.00,VWS V14.01,2013-02-07 00:03:00,
2013-02-06 16:08:00,54.1,30.3,30.03,West,276,10.0,16.0,40,0.00,,---,0.00,VWS V14.01,2013-02-07 00:08:00,
2013-02-06 16:13:00,53.9,30.1,30.03,West,281,7.0,16.0,40,0.00,,---,0.00,VWS V14.01,2013-02-07 00:13:00,
2013-02-06 16:18:00,53.7,30.6,30.03,WSW,252,8.0,16.0,41,0.00,,---,0.00,VWS V14.01,2013-02-07 00:18:00,
2013-02-06 16:23:00,53.2,30.1,30.03,NW,313,7.0,16.0,41,0.00,,---,0.00,VWS V14.01,2013-02-07 00:23:00,
2013-02-06 16:28:00,53.1,30.0,30.04,WNW,295,8.0,9.0,41,0.00,,---,0.00,VWS V14.01,2013-02-07 00:28:00,
2013-02-06 16:30:00,53.1,30.0,30.04,WNW,294,6.0,16.0,41,0.00,,---,0.00,VWS V14.01,2013-02-07 00:30:00,
2013-02-06 16:33:00,52.8,27.9,30.04,WNW,287,8.0,16.0,38,0.00,,---,0.00,VWS V14.01,2013-02-07 00:33:00,
2013-02-06 16:38:00,52.4,26.9,30.04,WNW,285,9.0,16.0,37,0.00,,---,0.00,VWS V14.01,2013-02-07 00:38:00,
2013-02-06 16:43:00,52.1,26.0,30.04,WNW,293,10.0,16.0,36,0.00,,---,0.00,VWS V14.01,2013-02-07 00:43:00,
2013-02-06 16:48:00,51.9,25.1,30.04,NW,326,10.0,16.0,35,0.00,,---,0.00,VWS V14.01,2013-02-07 00:48:00,
2013-02-06 16:53:00,51.6,25.5,30.04,SW,235,9.0,16.0,36,0.00,,---,0.00,VWS V14.01,2013-02-07 00:53:00,
2013-02-06 16:58:00,51.2,25.8,30.05,WSW,247,11.0,11.0,37,0.00,,---,0.00,VWS V14.01,2013-02-07 00:58:00,
2013-02-06 17:00:00,51.3,25.9,30.04,WSW,252,4.0,16.0,37,0.00,,---,0.00,VWS V14.01,2013-02-07 01:00:00,
2013-02-06 17:03:00,50.8,25.5,30.05,WNW,288,10.0,12.0,37,0.00,,---,0.00,VWS V14.01,2013-02-07 01:03:00,
2013-02-06 17:08:00,50.3,25.0,30.05,West,280,4.0,12.0,37,0.00,,---,0.00,VWS V14.01,2013-02-07 01:08:00,
2013-02-06 17:13:00,49.8,24.6,30.05,WNW,283,8.0,12.0,37,0.00,,---,0.00,VWS V14.01,2013-02-07 01:13:00,
2013-02-06 17:18:00,49.3,24.8,30.05,WSW,249,7.0,12.0,38,0.00,,---,0.00,VWS V14.01,2013-02-07 01:18:00,
2013-02-06 17:23:00,48.7,25.5,30.05,SW,226,8.0,12.0,40,0.00,,---,0.00,VWS V14.01,2013-02-07 01:23:00,
2013-02-06 17:28:00,48.2,26.2,30.05,West,274,9.0,10.0,42,0.00,,---,0.00,VWS V14.01,2013-02-07 01:28:00,
2013-02-06 17:30:00,48.2,26.2,30.05,West,278,5.0,12.0,42,0.00,,---,0.00,VWS V14.01,2013-02-07 01:30:00,
2013-02-06 17:33:00,47.6,26.8,30.05,West,281,8.0,10.0,44,0.00,,---,0.00,VWS V14.01,2013-02-07 01:33:00,
2013-02-06 17:38:00,47.1,27.4,30.06,West,276,6.0,13.0,46,0.00,,---,0.00,VWS V14.01,2013-02-07 01:38:00,
2013-02-06 17:43:00,46.7,27.0,30.05,WSW,245,6.0,13.0,46,0.00,,---,0.00,VWS V14.01,2013-02-07 01:43:00,
2013-02-06 17:48:00,46.3,27.7,30.05,West,263,12.0,13.0,48,0.00,,---,0.00,VWS V14.01,2013-02-07 01:48:00,
2013-02-06 17:53:00,46.3,27.7,30.06,West,267,9.0,13.0,48,0.00,,---,0.00,VWS V14.01,2013-02-07 01:53:00,
2013-02-06 17:58:00,46.5,27.4,30.06,SW,221,8.0,8.0,47,0.00,,---,0.00,VWS V14.01,2013-02-07 01:58:00,
2013-02-06 18:00:00,46.4,27.3,30.06,WNW,286,6.0,13.0,47,0.00,,---,0.00,VWS V14.01,2013-02-07 02:00:00,
2013-02-06 18:03:00,46.6,27.5,30.06,West,266,5.0,15.0,47,0.00,,---,0.00,VWS V14.01,2013-02-07 02:03:00,
2013-02-06 18:08:00,46.4,27.8,30.06,WNW,283,8.0,15.0,48,0.00,,---,0.00,VWS V14.01,2013-02-07 02:08:00,
2013-02-06 18:13:00,46.5,27.4,30.06,West,264,7.0,15.0,47,0.00,,---,0.00,VWS V14.01,2013-02-07 02:13:00,
2013-02-06 18:18:00,46.4,27.8,30.06,West,271,8.0,15.0,48,0.00,,---,0.00,VWS V14.01,2013-02-07 02:18:00,
2013-02-06 18:23:00,46.5,27.9,30.06,WNW,287,10.0,15.0,48,0.00,,---,0.00,VWS V14.01,2013-02-07 02:23:00,
2013-02-06 18:28:00,46.6,28.0,30.06,WNW,284,12.0,13.0,48,0.00,,---,0.00,VWS V14.01,2013-02-07 02:28:00,
2013-02-06 18:30:00,46.6,28.0,30.06,West,269,9.0,15.0,48,0.00,,---,0.00,VWS V14.01,2013-02-07 02:30:00,
2013-02-06 18:33:00,46.8,28.2,30.06,WNW,293,8.0,13.0,48,0.00,,---,0.00,VWS V14.01,2013-02-07 02:33:00,
2013-02-06 18:38:00,46.5,27.9,30.06,WSW,257,6.0,13.0,48,0.00,,---,0.00,VWS V14.01,2013-02-07 02:38:00,
2013-02-06 18:43:00,46.1,27.0,30.06,WNW,291,10.0,17.0,47,0.00,,---,0.00,VWS V14.01,2013-02-07 02:43:00,
2013-02-06 18:48:00,46.6,28.0,30.06,WNW,294,13.0,20.0,48,0.00,,---,0.00,VWS V14.01,2013-02-07 02:48:00,
2013-02-06 18:53:00,47.1,26.9,30.06,WNW,294,8.0,20.0,45,0.00,,---,0.00,VWS V14.01,2013-02-07 02:53:00,
2013-02-06 18:58:00,47.3,26.5,30.06,West,276,7.0,11.0,44,0.00,,---,0.00,VWS V14.01,2013-02-07 02:58:00,
2013-02-06 19:00:00,47.3,26.5,30.06,WNW,290,9.0,20.0,44,0.00,,---,0.00,VWS V14.01,2013-02-07 03:00:00,
2013-02-06 19:03:00,47.2,27.0,30.06,West,276,14.0,19.0,45,0.00,,---,0.00,VWS V14.01,2013-02-07 03:03:00,
2013-02-06 19:08:00,47.3,26.0,30.06,West,274,10.0,19.0,43,0.00,,---,0.00,VWS V14.01,2013-02-07 03:08:00,
2013-02-06 19:13:00,47.7,25.2,30.06,WNW,300,8.0,19.0,41,0.00,,---,0.00,VWS V14.01,2013-02-07 03:13:00,
2013-02-06 19:18:00,47.7,24.6,30.06,West,270,12.0,19.0,40,0.00,,---,0.00,VWS V14.01,2013-02-07 03:18:00,
2013-02-06 19:23:00,47.8,25.3,30.07,WNW,298,9.0,19.0,41,0.00,,---,0.00,VWS V14.01,2013-02-07 03:23:00,
2013-02-06 19:28:00,47.5,25.6,30.07,WSW,257,9.0,9.0,42,0.00,,---,0.00,VWS V14.01,2013-02-07 03:28:00,
2013-02-06 19:30:00,47.5,26.1,30.07,WNW,301,6.0,19.0,43,0.00,,---,0.00,VWS V14.01,2013-02-07 03:30:00,
2013-02-06 19:33:00,47.4,25.5,30.07,WNW,293,10.0,16.0,42,0.00,,---,0.00,VWS V14.01,2013-02-07 03:33:00,
2013-02-06 19:38:00,47.4,24.9,30.07,West,277,9.0,16.0,41,0.00,,---,0.00,VWS V14.01,2013-02-07 03:38:00,
2013-02-06 19:43:00,47.5,25.0,30.07,West,274,7.0,16.0,41,0.00,,---,0.00,VWS V14.01,2013-02-07 03:43:00,
2013-02-06 19:48:00,47.5,25.0,30.07,WSW,238,7.0,19.0,41,0.00,,---,0.00,VWS V14.01,2013-02-07 03:48:00,
2013-02-06 19:53:00,47.6,23.9,30.07,WSW,250,10.0,19.0,39,0.00,,---,0.00,VWS V14.01,2013-02-07 03:53:00,
2013-02-06 19:58:00,47.4,25.5,30.07,WSW,254,10.0,10.0,42,0.00,,---,0.00,VWS V14.01,2013-02-07 03:58:00,
2013-02-06 20:00:00,47.5,24.4,30.07,NW,305,4.0,19.0,40,0.00,,---,0.00,VWS V14.01,2013-02-07 04:00:00,
2013-02-06 20:03:00,47.0,25.1,30.07,West,259,7.0,15.0,42,0.00,,---,0.00,VWS V14.01,2013-02-07 04:03:00,
2013-02-06 20:08:00,45.8,27.7,30.07,West,276,7.0,15.0,49,0.00,,---,0.00,VWS V14.01,2013-02-07 04:08:00,
2013-02-06 20:13:00,45.1,27.6,30.07,SW,233,4.0,15.0,50,0.00,,---,0.00,VWS V14.01,2013-02-07 04:13:00,
2013-02-06 20:18:00,45.1,27.1,30.07,WSW,239,6.0,15.0,49,0.00,,---,0.00,VWS V14.01,2013-02-07 04:18:00,
2013-02-06 20:23:00,45.2,26.2,30.07,WSW,243,6.0,15.0,47,0.00,,---,0.00,VWS V14.01,2013-02-07 04:23:00,
2013-02-06 20:28:00,45.3,25.2,30.07,WSW,240,9.0,11.0,45,0.00,,---,0.00,VWS V14.01,2013-02-07 04:28:00,
2013-02-06 20:30:00,45.3,25.2,30.07,West,277,6.0,15.0,45,0.00,,---,0.00,VWS V14.01,2013-02-07 04:30:00,
2013-02-06 20:33:00,45.6,24.4,30.07,West,276,8.0,15.0,43,0.00,,---,0.00,VWS V14.01,2013-02-07 04:33:00,
2013-02-06 20:38:00,45.7,23.4,30.07,WNW,291,5.0,15.0,41,0.00,,---,0.00,VWS V14.01,2013-02-07 04:38:00,
2013-02-06 20:43:00,45.7,23.4,30.07,WNW,283,6.0,15.0,41,0.00,,---,0.00,VWS V14.01,2013-02-07 04:43:00,
2013-02-06 20:48:00,46.1,23.7,30.07,SW,224,5.0,15.0,41,0.00,,---,0.00,VWS V14.01,2013-02-07 04:48:00,
2013-02-06 20:54:00,46.4,22.8,30.07,South,191,5.0,15.0,39,0.00,,---,0.00,VWS V14.01,2013-02-07 04:54:00,
2013-02-06 20:59:00,46.7,22.5,30.07,West,267,2.0,6.0,38,0.00,,---,0.00,VWS V14.01,2013-02-07 04:59:00,
2013-02-06 21:00:00,46.8,21.9,30.07,WSW,252,5.0,7.0,37,0.00,,---,0.00,VWS V14.01,2013-02-07 05:00:00,
2013-02-06 21:05:00,46.8,21.9,30.08,SW,233,5.0,11.0,37,0.00,,---,0.00,VWS V14.01,2013-02-07 05:05:00,
2013-02-06 21:10:00,46.7,21.8,30.08,WSW,255,8.0,14.0,37,0.00,,---,0.00,VWS V14.01,2013-02-07 05:10:00,
2013-02-06 21:15:00,46.7,21.8,30.08,West,281,6.0,14.0,37,0.00,,---,0.00,VWS V14.01,2013-02-07 05:15:00,
2013-02-06 21:20:00,46.4,21.6,30.08,West,266,6.0,14.0,37,0.00,,---,0.00,VWS V14.01,2013-02-07 05:20:00,
2013-02-06 21:25:00,46.4,20.9,30.08,WSW,249,4.0,14.0,36,0.00,,---,0.00,VWS V14.01,2013-02-07 05:25:00,
2013-02-06 21:30:00,46.8,22.5,30.09,West,266,9.0,10.0,38,0.00,,---,0.00,VWS V14.01,2013-02-07 05:30:00,
2013-02-06 21:35:00,46.7,21.2,30.08,SW,233,3.0,10.0,36,0.00,,---,0.00,VWS V14.01,2013-02-07 05:35:00,
2013-02-06 21:40:00,47.1,20.9,30.08,SW,233,4.0,11.0,35,0.00,,---,0.00,VWS V14.01,2013-02-07 05:40:00,
2013-02-06 21:45:00,47.1,20.2,30.09,West,259,5.0,11.0,34,0.00,,---,0.00,VWS V14.01,2013-02-07 05:45:00,
2013-02-06 21:50:00,47.0,20.8,30.09,West,267,4.0,11.0,35,0.00,,---,0.00,VWS V14.01,2013-02-07 05:50:00,
2013-02-06 21:55:00,46.7,20.5,30.09,WSW,237,2.0,11.0,35,0.00,,---,0.00,VWS V14.01,2013-02-07 05:55:00,
2013-02-06 22:00:00,46.4,19.6,30.09,WNW,283,3.0,4.0,34,0.00,,---,0.00,VWS V14.01,2013-02-07 06:00:00,
2013-02-06 22:05:00,46.6,18.3,30.09,WSW,248,3.0,9.0,32,0.00,,---,0.00,VWS V14.01,2013-02-07 06:05:00,
2013-02-06 22:10:00,47.0,18.0,30.09,WNW,284,4.0,9.0,31,0.00,,---,0.00,VWS V14.01,2013-02-07 06:10:00,
2013-02-06 22:15:00,47.3,16.7,30.09,WSW,258,5.0,10.0,29,0.00,,---,0.00,VWS V14.01,2013-02-07 06:15:00,
2013-02-06 22:20:00,47.5,16.0,30.09,WNW,287,3.0,10.0,28,0.00,,---,0.00,VWS V14.01,2013-02-07 06:20:00,
2013-02-06 22:25:00,48.0,13.9,30.08,WSW,252,5.0,11.0,25,0.00,,---,0.00,VWS V14.01,2013-02-07 06:25:00,
2013-02-06 22:30:00,48.2,14.0,30.09,West,277,8.0,10.0,25,0.00,,---,0.00,VWS V14.01,2013-02-07 06:30:00,
2013-02-06 22:35:00,48.7,13.5,30.08,West,281,8.0,14.0,24,0.00,,---,0.00,VWS V14.01,2013-02-07 06:35:00,
2013-02-06 22:40:00,48.6,14.4,30.08,West,279,9.0,14.0,25,0.00,,---,0.00,VWS V14.01,2013-02-07 06:40:00,
2013-02-06 22:45:00,48.5,14.3,30.08,West,259,6.0,14.0,25,0.00,,---,0.00,VWS V14.01,2013-02-07 06:45:00,
2013-02-06 22:50:00,48.1,14.9,30.08,SW,232,11.0,14.0,26,0.00,,---,0.00,VWS V14.01,2013-02-07 06:50:00,
2013-02-06 22:55:00,48.1,13.0,30.08,WNW,299,4.0,14.0,24,0.00,,---,0.00,VWS V14.01,2013-02-07 06:55:00,
2013-02-06 23:00:00,48.3,13.2,30.08,West,275,6.0,6.0,24,0.00,,---,0.00,VWS V14.01,2013-02-07 07:00:00,
2013-02-06 23:05:00,48.1,13.0,30.08,WSW,243,6.0,10.0,24,0.00,,---,0.00,VWS V14.01,2013-02-07 07:05:00,
2013-02-06 23:10:00,47.8,13.7,30.08,WSW,255,5.0,11.0,25,0.00,,---,0.00,VWS V14.01,2013-02-07 07:10:00,
2013-02-06 23:15:00,47.6,12.6,30.08,West,274,3.0,11.0,24,0.00,,---,0.00,VWS V14.01,2013-02-07 07:15:00,
2013-02-06 23:20:00,47.9,12.9,30.08,WSW,243,5.0,11.0,24,0.00,,---,0.00,VWS V14.01,2013-02-07 07:20:00,
2013-02-06 23:25:00,47.5,14.3,30.08,West,267,5.0,11.0,26,0.00,,---,0.00,VWS V14.01,2013-02-07 07:25:00,
2013-02-06 23:30:00,47.3,15.0,30.08,WSW,243,3.0,7.0,27,0.00,,---,0.00,VWS V14.01,2013-02-07 07:30:00,
2013-02-06 23:35:00,47.1,14.0,30.08,WNW,283,3.0,7.0,26,0.00,,---,0.00,VWS V14.01,2013-02-07 07:35:00,
2013-02-06 23:40:00,47.1,13.1,30.08,WSW,246,2.0,7.0,25,0.00,,---,0.00,VWS V14.01,2013-02-07 07:40:00,
2013-02-06 23:45:00,46.8,13.7,30.08,WSW,257,5.0,9.0,26,0.00,,---,0.00,VWS V14.01,2013-02-07 07:45:00,
2013-02-06 23:50:00,46.8,12.9,30.08,WSW,246,4.0,10.0,25,0.00,,---,0.00,VWS V14.01,2013-02-07 07:50:00,
2013-02-06 23:55:00,46.8,13.7,30.08,SW,218,5.0,10.0,26,0.00,,---,0.00,VWS V14.01,2013-02-07 07:55:00,